Tracking 31011 objects as of 12-Jul-2025
HD Live streaming from Space Station
objects crossing your sky now

ONEWEB-0564

Track ONEWEB-0564 now!
10-day predictions
ONEWEB-0564 is classified as:


NORAD ID: 55801
Int'l Code: 2023-029F
Perigee: 1,187.7 km
Apogee: 1,190.1 km
Inclination: 87.9 °
Period: 109.0 minutes
Semi major axis: 7559 km
RCS: Unknown
Launch date: March 9, 2023
Source: United Kingdom (UK)
Launch site: AIR FORCE EASTERN TEST RANGE (AFETR)
Your satellite tracking list
Your tracking list is empty




NASA's NSSDC Master Catalog

Two Line Element Set (TLE):
1 55801U 23029F   25192.83514167 -.00000010  00000-0 -57240-4 0  9994
2 55801  87.9273 342.2759 0001549 103.9431 256.1875 13.20770115116222
Source of the keplerian elements: AFSPC